Location: *
(58.7167°N, 26.1833°E)
Time: 10:41:02
(UTC+00:00)

Cosmos 1842 - Pass Details

Date: 25 August 2019
Orbit: 523 x 537 km, 82.5° (Epoch: 15 September)

Event Time Altitude Azimuth Distance (km) Brightness Sun altitude
Rises 20:05:39 0° 345° (NNW) 2,688 8.3 -15.7°
Reaches altitude 10° 20:07:49 10° 342° (NNW) 1,795 7.2 -15.9°
Maximum altitude 20:11:43 64° 261° (W) 596 3.5 -16.1°
Enters shadow 20:13:46 26° 187° (S) 1,070 4.3 -16.3°
